Weather History for Moses Lake, WA

Change the Weather History Date:

Saturday, March 24, 2012

  Actual Average Record
Temperature  
Mean Temperature 43 °F 46 °F  
Max Temperature 56 °F 58 °F 73 °F (2001)
Min Temperature 29 °F 34 °F 22 °F (2013)
Degree Days  
Heating Degree Days 22 19  
Month to date heating degree days 552 536  
Since 1 July heating degree days 5008 5041  
Cooling Degree Days 0 0  
Month to date cooling degree days 0 0  
Year to date cooling degree days 0 0  
Moisture  
Dew Point 28 °F    
Average Humidity 58    
Maximum Humidity 85    
Minimum Humidity 30    
Precipitation  
Precipitation 0.00 in 0.02 in 0.04 in (2001)
Month to date precipitation 0.36 0.55  
Year to date precipitation 1.48 2.49  
Sea Level Pressure  
Sea Level Pressure 30.04 in    
Wind  
Wind Speed 9 mph (NNE)    
Max Wind Speed 21 mph    
Max Gust Speed 25 mph    
Visibility 10 miles    
Events      
T = Trace of Precipitation, MM = Missing Value Source: NWS Daily Summary

Daily Weather History Graph

Daily Weather History Graph

Search for Another Location

Airport:

Trip Planner

Search our weather history database for the weather conditions in past years. The results will help you decide how hot, cold, wet, or windy it might be!

Date:

Astronomy

Mar. 24, 2012 Rise Set
Actual Time 6:51 AM PDT 7:16 PM PDT
Civil Twilight 6:20 AM PDT 7:47 PM PDT
Nautical Twilight 5:44 AM PDT 8:23 PM PDT
Astronomical Twilight 5:06 AM PDT 9:01 PM PDT
Moon 7:21 AM PDT (3/24) 9:54 PM PDT (3/24)
Length of Visible Light 13h 26m
Length of Day
12h 25m
Waxing Crescent, 4% of the Moon is Illuminated
Mar 24
Waxing Crescent
Mar 30
First Quarter
Apr 6
Full
Apr 13
Last Quarter
Apr 21
New

Hourly Weather History & Observations

Time (PDT) Temp. Windchill Dew Point Humidity Pressure Visibility Wind Dir Wind Speed Gust Speed Precip Events Conditions
12:52 AM 28.9 °F 21.1 °F 24.1 °F 82% 30.14 in 10.0 mi North 8.1 mph - N/A   Clear
1:52 AM 30.0 °F 23.2 °F 24.1 °F 79% 30.14 in 10.0 mi North 6.9 mph - N/A   Clear
2:52 AM 30.0 °F 23.2 °F 25.0 °F 82% 30.12 in 10.0 mi North 6.9 mph - N/A   Unknown
3:52 AM 32.0 °F 24.2 °F 26.1 °F 79% 30.11 in 10.0 mi North 9.2 mph - N/A   Clear
4:52 AM 32.0 °F 23.6 °F 27.0 °F 82% 30.11 in 10.0 mi North 10.4 mph - N/A   Clear
5:52 AM 33.1 °F 26.1 °F 27.0 °F 78% 30.10 in 10.0 mi North 8.1 mph - N/A   Clear
6:52 AM 32.0 °F 24.8 °F 28.0 °F 85% 30.10 in 10.0 mi North 8.1 mph - N/A   Clear
7:52 AM 35.1 °F 27.9 °F 28.0 °F 76% 30.10 in 10.0 mi North 9.2 mph - N/A   Mostly Cloudy
8:52 AM 39.9 °F 31.8 °F 30.0 °F 68% 30.09 in 10.0 mi North 15.0 mph - N/A   Mostly Cloudy
9:52 AM 44.1 °F 38.1 °F 28.9 °F 55% 30.07 in 10.0 mi North 11.5 mph - N/A   Mostly Cloudy
10:52 AM 46.9 °F - 28.0 °F 48% 30.08 in 10.0 mi NE 10.4 mph - N/A   Overcast
11:52 AM 51.1 °F - 28.9 °F 43% 30.04 in 10.0 mi North 15.0 mph - N/A   Partly Cloudy
12:52 PM 53.1 °F - 28.0 °F 38% 30.03 in 10.0 mi NNE 11.5 mph - N/A   Clear
1:52 PM 54.0 °F - 27.0 °F 35% 30.01 in 10.0 mi North 10.4 mph - N/A   Clear
2:52 PM 55.4 °F - 26.6 °F 33% 29.96 in 10.0 mi NNE 8.1 mph 16.1 mph N/A   Clear
3:52 PM 55.0 °F - 25.0 °F 31% 29.97 in 10.0 mi NNE 11.5 mph - N/A   Clear
4:52 PM 55.0 °F - 27.0 °F 34% 29.97 in 10.0 mi NE 8.1 mph - N/A   Clear
5:52 PM 55.0 °F - 28.9 °F 37% 29.97 in 10.0 mi NNE 6.9 mph - N/A   Clear
6:52 PM 53.1 °F - 32.0 °F 45% 29.96 in 10.0 mi NNE 4.6 mph - N/A   Clear
7:52 PM 48.0 °F - 33.1 °F 56% 29.96 in 10.0 mi NNE 5.8 mph - N/A   Clear
8:52 PM 45.0 °F 41.2 °F 33.1 °F 63% 29.96 in 10.0 mi NNE 6.9 mph - N/A   Clear
9:52 PM 39.0 °F 34.0 °F 32.0 °F 76% 29.96 in 10.0 mi North 6.9 mph - N/A   Clear
10:52 PM 37.0 °F - 30.0 °F 76% 29.95 in 10.0 mi Calm Calm - N/A   Clear
11:52 PM 36.0 °F 33.3 °F 30.0 °F 79% 29.95 in 10.0 mi NNE 3.5 mph - N/A   Clear